Regional Weather Roundup
Issued by NWS

Home | Current Version | Previous Version | Graphics & Text | Print | Product List | Glossary On
Versions: 1 2 3 4 5 6 7 8 9 10 11 12 13 14 15 16 17 18 19 20 21 22 23 24 25 26 27 28 29 30 31 32 33 34 35 36 37 38 39 40 41 42 43 44 45 46 47 48 49 50
000
ASUS43 KIND 201059
RWRIN

WEATHER ROUNDUP FOR INDIANA
NATIONAL WEATHER SERVICE INDIANAPOLIS IN
600 AM EST MON FEB 20 2017

NOTE: "FAIR" INDICATES FEW OR NO CLOUDS BELOW 12,000 FEET WITH NO
SIGNIFICANT WEATHER AND/OR OBSTRUCTIONS TO VISIBILITY.

* - STATION DOES NOT REPORT WEATHER SUCH AS PRECIPITATION OR FOG.

+ - STATION NOT QUALITY CONTROLLED BY THE NATIONAL WEATHER SERVICE.
    USE DATA WITH CAUTION...ESPECIALLY DEWPOINT AND RELATIVE
    HUMIDITY OBSERVATIONS.

INZ001>003-010>013-019-020-201200-
NORTHWEST INDIANA

CITY           SKY/WX    TMP DP  RH WIND       PRES   REMARKS
GARY /AIRPORT/ CLOUDY    46  41  81 SE5       30.14S FOG
KNOX *+        PTCLDY    39  27  60 SE7       30.15F
MONTICELLO +   PTCLDY    41  40  96 SE5       30.15F FOG

$$

LMZ046-743>745-201200-
SOUTHERN LAKE MICHIGAN

STATION/POSITION TIME  TEMP    WIND        PRES    WAVE
                       AIR SEA DIR/SP/G            HT
                 (UTC) (F)     (DEG/KT/KT) (MB)    (FT)
BURNS HARBOR     1040   52     150/  9/ 11 1021.0S
MICHIGAN CITY    1030   47     100/  9/ 10   N/A

$$

INZ004-005-014>016-021>024-201200-
NORTH CENTRAL INDIANA

CITY           SKY/WX    TMP DP  RH WIND       PRES   REMARKS
GOSHEN         CLOUDY    33  29  85 CALM      30.19R
SOUTH BEND     PTCLDY    40  28  62 SE3       30.18R
WARSAW +       CLOUDY    34  32  93 CALM      30.20R FOG

$$

INZ006>009-017-018-025>027-201200-
NORTHEAST INDIANA

CITY           SKY/WX    TMP DP  RH WIND       PRES   REMARKS
ANGOLA *+      CLEAR     36  34  93 CALM      30.19R
FORT WAYNE     CLOUDY    35  30  82 CALM      30.20R
KENDALLVILLE + PTCLDY    40  29  65 E3        30.19R

$$

INZ028-029-035-036-043>045-051>053-201200-
WEST CENTRAL INDIANA

CITY           SKY/WX    TMP DP  RH WIND       PRES   REMARKS
LAFAYETTE      CLOUDY    42  42 100 E5        30.15S FOG
TERRE HAUTE    FOG       40  38  93 CALM      30.16R VSB 1/4

$$

INZ030>032-037>040-046>048-054>057-064-065-201200-
CENTRAL INDIANA

CITY           SKY/WX    TMP DP  RH WIND       PRES   REMARKS
CP ATTERBURY + CLOUDY    39  37  93 CALM      30.20R VSB<1/4
FRANKFORT +    FOG       40  40  97 SE7       30.18S VSB 1/4
GREENWOOD *+   CLOUDY    41  41 100 CALM      30.19S VSB 1/4
INDIANAPOLIS   FOG       42  42 100 E6        30.18R VSB 1/8
-EAGLE CREEK   FOG       39  37  92 CALM      30.18R VSB 1
KOKOMO +       FOG       39  39 100 SE7       30.19R VSB 1/4
MT COMFORT *+  CLOUDY    39  39 100 CALM      30.19S VSB<1/4
SHELBYVILLE    FOG       39  37  92 E6        30.19R VSB 1/4

$$

INZ033-034-041-042-049-050-058-059-201200-
EAST CENTRAL INDIANA

CITY           SKY/WX    TMP DP  RH WIND       PRES   REMARKS
MUNCIE         FOG       39  37  92 CALM      30.20R VSB 1/2

$$

INZ060-061-067>069-081>083-085>088-201200-
SOUTHWEST INDIANA

CITY           SKY/WX    TMP DP  RH WIND       PRES   REMARKS
EVANSVILLE     FOG       42  41  96 NE3       30.16R VSB 1/4
HUNTINGBURG *+ PTCLDY    43  43 100 SE7       30.17R VSB 1

$$

INZ062-063-066-070>080-084-089>092-201200-
SOUTH CENTRAL AND SOUTHEAST INDIANA

CITY           SKY/WX    TMP DP  RH WIND       PRES   REMARKS
BLOOMINGTON    FOG       42  41  96 SE3       30.17R VSB 1/4
MADISON *+     CLOUDY    36  36 100 CALM      30.21S VSB 1/4
SEYMOUR +      FOG       39  39 100 CALM      30.19R VSB 1/4

$$





USA.gov is the U.S. government's official web portal to all federal, state and local government web resources and services.